Weather History for Mekoryuk, AK

Change the Weather History Date:

Monday, May 7, 2012

  Actual Average Record
Temperature  
Mean Temperature 22 °F -  
Max Temperature 24 °F 33 °F 44 °F (2004)
Min Temperature 19 °F 26 °F 9 °F (1984)
Degree Days  
Heating Degree Days 44    
Moisture  
Dew Point 19 °F    
Average Humidity 86    
Maximum Humidity 93    
Minimum Humidity 80    
Precipitation  
Precipitation 0.00 in - - ()
Sea Level Pressure  
Sea Level Pressure 29.93 in    
Wind  
Wind Speed 19 mph (NW)    
Max Wind Speed 22 mph    
Max Gust Speed 26 mph    
Visibility 9 miles    
Events      
Averages and records for this station are not official NWS values.
T = Trace of Precipitation, MM = Missing Value Source: NWS Daily Summary

Daily Weather History Graph

Daily Weather History Graph

Search for Another Location

Airport:

Trip Planner

Search our weather history database for the weather conditions in past years. The results will help you decide how hot, cold, wet, or windy it might be!

Date:

Astronomy

May. 07, 2012 Rise Set
Actual Time 6:42 AM AKDT 11:22 PM AKDT
Civil Twilight 5:43 AM AKDT 12:21 AM AKDT
Nautical Twilight 3:50 AM AKDT 2:23 AM AKDT
Astronomical Twilight Sun does not rise Sun does not rise
Moon 1:06 AM AKDT (5/7) 7:32 AM AKDT (5/7)
Length of Visible Light 18h 37m
Length of Day
16h 39m
Waning Gibbous, 96% of the Moon is Illuminated
May 7
Waning Gibbous
May 12
Last Quarter
May 20
New
May 28
First Quarter
Jun 4
Full

Hourly Weather History & Observations

Time (AKDT) Temp. Windchill Dew Point Humidity Pressure Visibility Wind Dir Wind Speed Gust Speed Precip Events Conditions
12:16 AM 21.2 °F 5.2 °F 17.6 °F 86% 29.89 in 7.0 mi North 21.9 mph 26.5 mph N/A   Overcast
12:36 AM 21.2 °F 6.4 °F 17.6 °F 86% 29.89 in 7.0 mi NNW 18.4 mph 24.2 mph N/A   Overcast
12:56 AM 21.2 °F 6.0 °F 17.6 °F 86% 29.89 in 6.0 mi NNW 19.6 mph - N/A   Overcast
1:16 AM 21.2 °F 6.0 °F 17.6 °F 86% 29.89 in 7.0 mi NNW 19.6 mph - N/A   Overcast
1:36 AM 21.2 °F 6.8 °F 17.6 °F 86% 29.90 in 9.0 mi North 17.3 mph 24.2 mph N/A   Overcast
1:56 AM 21.2 °F 5.2 °F 17.6 °F 86% 29.90 in 7.0 mi North 21.9 mph - N/A   Overcast
2:16 AM 21.2 °F 6.0 °F 17.6 °F 86% 29.90 in 7.0 mi North 19.6 mph 25.3 mph N/A   Overcast
2:36 AM 21.2 °F 6.0 °F 17.6 °F 86% 29.89 in 7.0 mi NNW 19.6 mph - N/A   Overcast
2:56 AM 21.2 °F 6.0 °F 17.6 °F 86% 29.89 in 8.0 mi North 19.6 mph - N/A   Overcast
3:16 AM 21.2 °F 6.4 °F 17.6 °F 86% 29.90 in 9.0 mi NNW 18.4 mph - N/A   Overcast
3:36 AM 21.2 °F 6.0 °F 17.6 °F 86% 29.90 in 8.0 mi North 19.6 mph - N/A   Overcast
3:56 AM 21.2 °F 6.4 °F 17.6 °F 86% 29.90 in 10.0 mi NNW 18.4 mph - N/A   Overcast
4:16 AM 21.2 °F 7.3 °F 17.6 °F 86% 29.90 in 9.0 mi NNW 16.1 mph 21.9 mph N/A   Overcast
4:36 AM 21.2 °F 6.4 °F 17.6 °F 86% 29.90 in 8.0 mi NNW 18.4 mph - N/A   Overcast
4:56 AM 21.2 °F 6.4 °F 17.6 °F 86% 29.90 in 7.0 mi NNW 18.4 mph - N/A   Overcast
5:16 AM 19.4 °F 4.5 °F 17.6 °F 93% 29.91 in 10.0 mi North 17.3 mph - N/A   Overcast
5:36 AM 19.4 °F 3.2 °F 17.6 °F 93% 29.90 in 6.0 mi NW 20.7 mph 24.2 mph N/A   Overcast
5:56 AM 19.4 °F 4.5 °F 17.6 °F 93% 29.91 in 7.0 mi NNW 17.3 mph - N/A   Overcast
6:16 AM 19.4 °F 4.5 °F 17.6 °F 93% 29.91 in 8.0 mi NNW 17.3 mph - N/A   Overcast
6:36 AM 19.4 °F 5.5 °F 15.8 °F 86% 29.91 in 7.0 mi NW 15.0 mph - N/A   Overcast
6:56 AM 19.4 °F 3.2 °F 17.6 °F 93% 29.92 in 8.0 mi NNW 20.7 mph - N/A   Overcast
7:16 AM 19.4 °F 5.0 °F 17.6 °F 93% 29.92 in 9.0 mi NNW 16.1 mph - N/A   Overcast
7:36 AM 19.4 °F 5.0 °F 17.6 °F 93% 29.92 in 10.0 mi NNW 16.1 mph - N/A   Overcast
7:56 AM 19.4 °F 5.0 °F 17.6 °F 93% 29.92 in 10.0 mi NNW 16.1 mph - N/A   Overcast
8:16 AM 19.4 °F 5.0 °F 17.6 °F 93% 29.93 in 9.0 mi NNW 16.1 mph - N/A   Overcast
8:36 AM 19.4 °F 3.2 °F 17.6 °F 93% 29.92 in 9.0 mi NW 20.7 mph - N/A   Overcast
8:56 AM 19.4 °F 4.5 °F 17.6 °F 93% 29.93 in 9.0 mi NW 17.3 mph - N/A   Overcast
9:16 AM 21.2 °F 6.0 °F 17.6 °F 86% 29.93 in 7.0 mi NNW 19.6 mph - N/A   Overcast
9:36 AM 21.2 °F 6.8 °F 17.6 °F 86% 29.93 in 9.0 mi NW 17.3 mph - N/A   Overcast
9:56 AM 21.2 °F 7.3 °F 17.6 °F 86% 29.93 in 8.0 mi NW 16.1 mph - N/A   Overcast
10:16 AM 21.2 °F 6.4 °F 17.6 °F 86% 29.93 in 9.0 mi NW 18.4 mph - N/A   Overcast
10:36 AM 21.2 °F 6.4 °F 17.6 °F 86% 29.94 in 10.0 mi NW 18.4 mph - N/A   Overcast
10:56 AM 21.2 °F 6.8 °F 17.6 °F 86% 29.94 in 8.0 mi NW 17.3 mph - N/A   Overcast
11:16 AM 21.2 °F 6.8 °F 17.6 °F 86% 29.94 in 10.0 mi NW 17.3 mph - N/A   Overcast
11:36 AM 21.2 °F 6.0 °F 17.6 °F 86% 29.94 in 10.0 mi NW 19.6 mph - N/A   Overcast
11:56 AM 21.2 °F 6.8 °F 17.6 °F 86% 29.95 in 9.0 mi NW 17.3 mph - N/A   Overcast
12:16 PM 21.2 °F 6.4 °F 19.4 °F 93% 29.95 in 9.0 mi NNW 18.4 mph - N/A   Overcast
12:36 PM 21.2 °F 6.4 °F 17.6 °F 86% 29.95 in 9.0 mi NW 18.4 mph - N/A   Overcast
12:56 PM 23.0 °F 8.3 °F 19.4 °F 86% 29.95 in 10.0 mi NW 19.6 mph - N/A   Overcast
1:16 PM 23.0 °F 8.7 °F 19.4 °F 86% 29.95 in 9.0 mi NW 18.4 mph - N/A   Overcast
1:36 PM 23.0 °F 8.3 °F 19.4 °F 86% 29.95 in 10.0 mi NW 19.6 mph - N/A   Overcast
1:56 PM 23.0 °F 8.7 °F 19.4 °F 86% 29.95 in 10.0 mi NNW 18.4 mph - N/A   Overcast
2:16 PM 24.8 °F 11.9 °F 19.4 °F 80% 29.95 in 9.0 mi NW 16.1 mph - N/A   Overcast
2:36 PM 24.8 °F 11.5 °F 19.4 °F 80% 29.95 in 10.0 mi NNW 17.3 mph - N/A   Overcast
2:56 PM 24.8 °F 11.5 °F 19.4 °F 80% 29.95 in 9.0 mi NW 17.3 mph - N/A   Overcast
3:16 PM 24.8 °F 11.1 °F 19.4 °F 80% 29.95 in 10.0 mi NW 18.4 mph - N/A   Overcast
3:36 PM 24.8 °F 11.1 °F 19.4 °F 80% 29.95 in 10.0 mi NW 18.4 mph - N/A   Overcast
3:56 PM 24.8 °F 11.1 °F 19.4 °F 80% 29.95 in 10.0 mi NW 18.4 mph - N/A   Overcast
4:16 PM 24.8 °F 11.5 °F 21.2 °F 86% 29.95 in 10.0 mi NNW 17.3 mph - N/A   Overcast
4:36 PM 24.8 °F 11.5 °F 21.2 °F 86% 29.95 in 10.0 mi NW 17.3 mph - N/A   Overcast
4:56 PM 24.8 °F 11.1 °F 21.2 °F 86% 29.95 in 10.0 mi NW 18.4 mph - N/A   Overcast
5:16 PM 24.8 °F 10.7 °F 21.2 °F 86% 29.95 in 10.0 mi NW 19.6 mph - N/A   Overcast
5:36 PM 24.8 °F 11.5 °F 21.2 °F 86% 29.95 in 10.0 mi NW 17.3 mph - N/A   Overcast
5:56 PM 24.8 °F 10.7 °F 21.2 °F 86% 29.94 in 10.0 mi NW 19.6 mph - N/A   Overcast
6:16 PM 24.8 °F 11.5 °F 21.2 °F 86% 29.95 in 10.0 mi NW 17.3 mph - N/A   Overcast
6:36 PM 24.8 °F 11.1 °F 21.2 °F 86% 29.94 in 10.0 mi NW 18.4 mph - N/A   Overcast
6:56 PM 24.8 °F 12.4 °F 21.2 °F 86% 29.94 in 10.0 mi NW 15.0 mph - N/A   Overcast
7:16 PM 24.8 °F 11.9 °F 21.2 °F 86% 29.94 in 10.0 mi NW 16.1 mph - N/A   Overcast
7:36 PM 24.8 °F 11.5 °F 21.2 °F 86% 29.94 in 10.0 mi NW 17.3 mph - N/A   Overcast
7:56 PM 24.8 °F 10.7 °F 21.2 °F 86% 29.94 in 10.0 mi NW 19.6 mph - N/A   Overcast
8:16 PM 24.8 °F 11.1 °F 21.2 °F 86% 29.93 in 10.0 mi NW 18.4 mph - N/A   Overcast
8:36 PM 24.8 °F 11.1 °F 21.2 °F 86% 29.93 in 10.0 mi NW 18.4 mph - N/A   Overcast
8:56 PM 24.8 °F 11.1 °F 21.2 °F 86% 29.93 in 10.0 mi NW 18.4 mph - N/A   Overcast
9:16 PM 24.8 °F 11.9 °F 19.4 °F 80% 29.93 in 10.0 mi NW 16.1 mph 21.9 mph N/A   Overcast
9:36 PM 24.8 °F 10.7 °F 21.2 °F 86% 29.93 in 10.0 mi NW 19.6 mph - N/A   Overcast
9:56 PM 24.8 °F 11.9 °F 21.2 °F 86% 29.93 in 10.0 mi NW 16.1 mph - N/A   Overcast
10:16 PM 24.8 °F 11.1 °F 19.4 °F 80% 29.93 in 10.0 mi NW 18.4 mph - N/A   Overcast
10:36 PM 24.8 °F 12.9 °F 21.2 °F 86% 29.94 in 10.0 mi NW 13.8 mph - N/A   Overcast
10:56 PM 24.8 °F 11.1 °F 21.2 °F 86% 29.94 in 10.0 mi NW 18.4 mph - N/A   Overcast
11:16 PM 24.8 °F 12.4 °F 19.4 °F 80% 29.94 in 10.0 mi NW 15.0 mph - N/A   Overcast
11:36 PM 24.8 °F 12.9 °F 21.2 °F 86% 29.93 in 10.0 mi NW 13.8 mph - N/A   Overcast
11:56 PM 24.8 °F 11.5 °F 21.2 °F 86% 29.93 in 10.0 mi NW 17.3 mph - N/A   Overcast